Change the Weather History Date:

Wednesday, December 26, 2012

  Actual Average Record
Temperature  
Mean Temperature 10 °F -  
Max Temperature 26 °F 25 °F 39 °F (2014)
Min Temperature -6 °F 5 °F -11 °F (2008)
Degree Days  
Heating Degree Days 55    
Moisture  
Dew Point 5 °F    
Average Humidity 72    
Maximum Humidity 81    
Minimum Humidity 51    
Precipitation  
Precipitation 0.00 in - - ()
Sea Level Pressure  
Sea Level Pressure 30.30 in    
Wind  
Wind Speed 0 mph (North)    
Max Wind Speed 0 mph    
Max Gust Speed -    
Visibility 10 miles    
Events      
Averages and records for this station are not official NWS values.
T = Trace of Precipitation, MM = Missing Value Source: NWS Daily Summary

Daily Weather History Graph

Daily Weather History Graph

Search for Another Location

Airport or City:

Trip Planner

Search our weather history database for the weather conditions in past years. The results will help you decide how hot, cold, wet, or windy it might be!

Date:

Astronomy

Dec. 26, 2012 Rise Set
Actual Time 7:20 AM EST 4:10 PM EST
Civil Twilight 6:47 AM EST 4:44 PM EST
Nautical Twilight 6:10 AM EST 5:21 PM EST
Astronomical Twilight 5:34 AM EST 5:56 PM EST
Moon 3:02 PM EST (12/26) 5:40 AM EST (12/26)
Length of Visible Light 9h 57m
Length of Day
8h 50m
Waxing Gibbous, 97% of the Moon is Illuminated
Dec 26
Waxing Gibbous
Dec 28
Full
Jan 4
Last Quarter
Jan 11
New
Jan 18
First Quarter

Hourly Weather History & Observations

Time (EST) Temp. Dew Point Humidity Pressure Visibility Wind Dir Wind Speed Gust Speed Precip Events Conditions
1:52 AM 1.9 °F -2.9 °F 80% 30.33 in 10.0 mi Calm Calm - N/A   Clear
2:52 AM -0.0 °F -5.1 °F 79% 30.35 in 10.0 mi Calm Calm - N/A   Clear
3:52 AM -0.0 °F -5.1 °F 79% 30.37 in 10.0 mi Calm Calm - N/A   Clear
4:52 AM -2.9 °F -8.0 °F 79% 30.38 in 10.0 mi Calm Calm - N/A   Clear
5:52 AM -0.9 °F -8.0 °F 72% 30.38 in 9.0 mi Calm Calm - N/A   Clear
6:52 AM -4.0 °F -9.0 °F 79% 30.37 in 10.0 mi Calm Calm - N/A   Clear
7:52 AM -6.0 °F -11.0 °F 79% 30.40 in 10.0 mi Calm Calm - N/A   Clear
8:52 AM 3.9 °F -2.0 °F 76% 30.39 in 9.0 mi Calm Calm - N/A   Clear
9:52 AM 10.0 °F 5.0 °F 80% 30.39 in 10.0 mi Calm Calm - N/A   Clear
10:52 AM 16.0 °F 9.0 °F 74% 30.35 in 10.0 mi Calm Calm - N/A   Clear
11:52 AM 21.0 °F 9.0 °F 60% 30.32 in 10.0 mi Calm Calm - N/A   Clear
12:52 PM 25.0 °F 9.0 °F 51% 30.28 in 10.0 mi Calm Calm - N/A   Clear
1:52 PM 25.0 °F 10.0 °F 53% 30.27 in 10.0 mi Calm Calm - N/A   Clear
2:52 PM 26.1 °F 10.0 °F 51% 30.28 in 10.0 mi Calm Calm - N/A   Clear
3:52 PM 25.0 °F 10.9 °F 55% 30.27 in 10.0 mi Calm Calm - N/A   Clear
4:52 PM 18.0 °F 12.0 °F 78% 30.27 in 10.0 mi Calm Calm - N/A   Clear
5:52 PM 15.1 °F 10.0 °F 80% 30.28 in 10.0 mi Calm Calm - N/A   Clear
6:52 PM 15.1 °F 10.0 °F 80% 30.26 in 10.0 mi Calm Calm - N/A   Clear
7:52 PM 17.1 °F 12.0 °F 81% 30.24 in 10.0 mi Calm Calm - N/A   Clear
8:52 PM 18.0 °F 12.0 °F 78% 30.22 in 10.0 mi Calm Calm - N/A   Clear
9:52 PM 19.0 °F 12.9 °F 77% 30.19 in 10.0 mi Calm Calm - N/A   Partly Cloudy
10:52 PM 19.9 °F 14.0 °F 78% 30.14 in 10.0 mi Calm Calm - N/A   Overcast
11:52 PM 21.9 °F 12.9 °F 68% 30.09 in 10.0 mi Calm Calm - N/A   Overcast